This is the latest recevied weather packets stored in our database for station/object N8SDR. If no packets are shown the sender has not sent any weather packets the latest 10 day(s).
| Time | Temp. | Humidity | Pressure | Rain* | Wind** | Luminosity | Snow |
|---|---|---|---|---|---|---|---|
| 1778021738 | 16.11° C | 99% | 1003.9 hPa | 0 mm | - | 28 W/m² | - |
| 1778021434 | 16.11° C | 99% | 1003.7 hPa | 0 mm | - | 29 W/m² | - |
| 1778021131 | 16.11° C | 99% | 1004.1 hPa | 0 mm | - | 24 W/m² | - |
| 1778020829 | 16.11° C | 99% | 1004 hPa | 0 mm | - | 33 W/m² | - |
| 1778020526 | 16.11° C | 99% | 1004 hPa | 1.78 mm | - | 45 W/m² | - |
| 1778020222 | 16.11° C | 99% | 1004.1 hPa | 1.78 mm | - | 51 W/m² | - |
| 1778019918 | 16.11° C | 99% | 1004.3 hPa | 0 mm | - | 44 W/m² | - |
| 1778019614 | 16.11° C | 99% | 1004.2 hPa | 0 mm | - | 63 W/m² | - |
| 1778019312 | 16.11° C | 99% | 1004.2 hPa | 1.27 mm | - | 66 W/m² | - |
| 1778019008 | 16.11° C | 99% | 1004.5 hPa | 1.27 mm | - | 49 W/m² | - |
| 1778018705 | 16.11° C | 99% | 1004.4 hPa | 1.78 mm | - | 57 W/m² | - |
| 1778018403 | 16.11° C | 99% | 1004.5 hPa | 1.78 mm | - | 39 W/m² | - |
| 1778018101 | 16.11° C | 99% | 1004.6 hPa | 1.27 mm | - | 42 W/m² | - |
| 1778017798 | 16.11° C | 99% | 1004.3 hPa | 1.27 mm | - | 40 W/m² | - |
| 1778017496 | 16.11° C | 99% | 1004.2 hPa | 3.56 mm | - | 46 W/m² | - |
| 1778017193 | 16.11° C | 99% | 1004.3 hPa | 1.78 mm | - | 75 W/m² | - |
| 1778016891 | 16.11° C | 99% | 1004.2 hPa | 0 mm | - | 65 W/m² | - |
| 1778016587 | 16.11° C | 99% | 1004.5 hPa | 0 mm | - | 35 W/m² | - |
| 1778016284 | 16.11° C | 99% | 1004.3 hPa | 3.05 mm | - | 67 W/m² | - |
| 1778015980 | 16.11° C | 99% | 1004.2 hPa | 3.05 mm | - | 55 W/m² | - |
| 1778015678 | 16.11° C | 99% | 1004.3 hPa | 1.27 mm | - | 26 W/m² | - |
| 1778015374 | 16.11° C | 99% | 1004.5 hPa | 3.05 mm | - | 31 W/m² | - |
| 1778015071 | 16.11° C | 99% | 1004.5 hPa | 1.78 mm | - | 20 W/m² | - |
| 1778014768 | 16.11° C | 99% | 1004.6 hPa | 0 mm | - | 34 W/m² | - |
| 1778014467 | 16.11° C | 99% | 1004.2 hPa | 0 mm | - | 59 W/m² | - |
* Rain latest hour (hover to see other rain measurements)
** Current wind speed in m/s (hover to see current wind gust speed)